Location: Unspecified
(43.8044°N, 11.0278°E)
Time: 01:56:57
(UTC+02:00)

Cosmos 2058 - Visible Passes

Search period start: 23 October 2014 00:00
Search period end: 01 November 2014 23:00
Orbit: 571 x 592 km, 82.5° (Epoch: 22 October)

Date Brightness Start Highest point End Pass type
(mag) Time Alt. Az. Time Alt. Az. Time Alt. Az.
23 Oct 6.3 04:43:57 10° E 04:44:52 11° E 04:45:47 10° ENE visible
23 Oct 2.8 06:17:11 10° SSW 06:21:19 65° W 06:25:31 10° N visible
24 Oct 5.9 04:47:54 10° ESE 04:50:17 15° E 04:52:41 10° NE visible
24 Oct 3.2 06:22:56 10° SSW 06:26:56 46° WNW 06:31:01 10° N visible
25 Oct 5.4 04:52:37 10° SE 04:55:43 21° E 04:58:52 10° NE visible
25 Oct 3.6 06:28:48 10° SW 06:32:35 33° WNW 06:36:25 10° N visible
26 Oct 4.9 03:59:13 19° SE 04:01:11 28° E 04:04:48 10° NNE visible
26 Oct 4.0 05:35:45 15° WSW 05:38:14 24° WNW 05:41:43 10° NNW visible
27 Oct 4.2 04:06:42 39° E 04:06:42 39° E 04:10:36 10° NNE visible
27 Oct 4.4 05:43:10 17° W 05:43:55 18° WNW 05:46:51 10° NNW visible
28 Oct 4.2 04:13:36 36° NE 04:13:36 36° NE 04:16:18 10° NNE visible
28 Oct 4.7 05:50:03 13° WNW 05:50:03 13° WNW 05:51:43 10° NW visible
29 Oct 4.7 04:20:11 24° NNE 04:20:11 24° NNE 04:21:54 10° N visible
30 Oct 5.2 04:26:34 16° N 04:26:34 16° N 04:27:26 10° N visible
31 Oct 5.6 04:32:48 11° N 04:32:48 11° N 04:32:53 10° N visible
